Wind_Speed
3 4 6 10 2 4 7 4 4 3 2 4 8 15 17 18 24 26 36 39 41 42 34 30 29 28 26 23 19 13 9 6 7 8 9 9 10 13 18 21 26 28 30 32
5 5 2 8 5 5 4 3 2 2 1 4 4 13 17 13 18 35 39 41 45 42 38 36 35 34 30 24 19 15 11 8 7 8 9 10 11 14 17 20 23 28 30 31
6 1 4 5 4 5 1 4 4 2 1 4 8 8 7 5 22 19 33 40 43 46 45 42 40 38 33 29 23 17 13 10 8 9 9 10 10 13 15 18 24 27 28 28
2 2 5 4 3 5 3 1 4 3 1 4 3 7 6 5 8 8 25 36 38 42 43 43 43 41 37 31 26 21 16 12 10 9 8 9 10 13 17 21 24 25 26 28
4 6 4 4 3 5 3 3 4 3 2 4 1 2 7 3 7 11 13 30 33 37 39 43 46 41 36 32 28 23 18 14 11 10 8 9 10 12 15 18 21 23 24 25
3 1 2 3 3 2 9 6 6 4 3 3 3 2 5 4 5 5 3 6 18 26 30 35 38 40 38 35 31 26 21 17 13 10 8 8 9 11 14 18 21 23 24 24
2 2 1 4 7 6 2 5 2 4 3 6 2 2 11 9 7 6 4 4 2 10 20 29 35 41 42 40 35 29 24 19 15 10 8 8 8 10 13 18 21 22 23 24
7 4 8 4 4 7 4 4 5 7 4 4 1 6 6 8 9 7 12 17 15 14 18 24 31 38 42 42 37 32 27 22 17 12 8 7 7 8 12 17 20 21 23 24
6 0 2 3 1 3 6 4 3 7 2 3 4 8 11 7 10 12 15 9 9 12 18 20 26 34 40 43 39 34 28 23 19 14 9 7 6 7 10 14 17 19 20 21
6 4 2 1 1 3 2 5 3 2 2 4 4 6 8 7 5 5 6 22 21 13 17 20 24 31 37 40 38 35 29 24 18 15 11 7 6 5 8 12 15 16 17 19
5 4 1 2 7 8 1 2 2 3 4 5 2 6 8 8 6 8 7 8 12 19 19 20 23 28 33 39 41 37 33 28 23 17 12 9 7 4 6 10 12 13 15 17
2 5 5 7 1 1 3 7 7 5 6 2 3 7 5 7 7 9 14 13 9 13 17 20 22 26 33 40 43 40 36 30 24 19 14 11 9 4 4 7 10 11 13 16
8 3 3 4 3 2 6 7 4 4 3 7 6 5 0 5 7 13 14 10 11 13 17 21 24 28 32 39 44 43 38 32 27 22 16 13 11 5 2 4 7 9 11 14
6 2 7 8 4 5 6 9 17 8 4 5 7 5 9 9 7 8 15 16 13 14 17 22 26 29 32 39 45 45 41 35 29 24 19 15 12 7 3 2 5 7 10 13
3 4 2 3 1 3 4 6 15 20 23 10 7 14 17 20 10 21 26 20 18 22 22 25 29 31 33 39 46 47 43 38 33 27 22 18 15 10 4 1 3 6 10 13
2 2 2 3 3 5 7 8 10 18 11 12 21 18 14 28 25 27 28 29 28 29 29 29 30 33 35 39 46 49 47 41 35 30 24 21 17 12 7 3 1 5 9 12
6 5 3 5 2 5 13 9 15 7 6 9 10 18 14 18 22 28 25 28 35 33 33 36 36 37 38 40 43 50 48 43 37 31 27 23 19 14 9 6 2 4 8 11
6 6 2 2 2 8 5 1 5 14 9 19 9 6 17 24 12 19 23 27 30 32 33 34 34 36 37 38 40 46 48 44 39 34 29 26 22 16 12 8 4 5 7 10
8 7 4 4 5 11 18 6 8 9 14 17 21 24 27 18 17 37 32 24 23 27 29 28 25 28 33 36 38 43 49 47 42 37 32 28 24 18 14 10 7 5 6 8
5 4 9 4 4 8 6 9 14 5 17 13 22 19 11 11 1 12 13 7 6 7 12 13 13 19 27 34 36 41 50 50 46 40 33 29 25 20 16 12 9 6 6 7
6 2 16 14 7 10 10 6 16 6 5 7 21 24 14 6 13 13 10 6 4 11 6 7 10 14 20 28 33 40 49 52 46 40 34 31 27 22 18 14 11 8 6 7
12 11 7 5 7 16 15 2 13 5 9 5 5 7 16 22 24 19 17 12 13 10 9 10 12 15 20 25 31 39 48 51 47 41 37 34 30 26 21 17 13 10 7 7
8 9 8 13 9 2 20 7 19 14 9 13 9 14 16 9 11 11 12 9 6 8 10 13 14 16 19 25 30 37 48 52 48 44 39 36 31 27 23 19 15 11 8 7
4 3 3 4 15 12 17 20 14 13 12 17 27 27 20 21 21 20 11 12 15 15 16 16 17 18 19 23 29 36 44 52 49 45 41 38 34 30 26 21 17 13 9 7
7 9 10 5 15 13 23 25 22 22 28 26 22 20 21 21 22 22 20 21 23 23 22 21 20 19 19 23 30 37 44 51 50 46 43 40 36 32 28 22 17 14 11 7
8 9 8 10 17 8 6 18 18 18 19 22 24 26 28 24 25 25 17 15 19 22 23 23 23 20 21 25 31 36 43 52 52 49 46 43 39 35 30 27 24 20 14 10
Wind_Direction
65 93 197 207 143 67 120 132 162 238 225 223 238 262 257 225 226 227 231 228 227 226 223 219 220 220 219 220 222 229 242 271 305 320 323 328 331 346 352 353 351 348 349 350
38 227 156 115 109 102 107 115 248 299 241 200 331 273 269 212 232 224 224 228 229 230 223 219 218 219 220 223 222 228 238 259 290 306 313 327 337 347 351 353 346 350 352 349
157 204 124 108 126 123 126 165 179 250 290 256 321 275 265 263 235 238 233 238 237 232 225 219 217 219 219 218 221 226 235 250 274 296 309 323 335 339 347 348 352 351 348 347
203 147 139 104 158 130 180 154 115 127 88 265 3 288 303 294 279 232 232 227 228 232 230 226 219 218 217 218 218 222 229 242 262 285 303 315 324 338 349 353 351 350 349 352
220 156 153 144 177 173 169 118 105 91 72 342 202 305 269 339 284 262 239 237 235 235 232 226 222 221 219 217 219 222 226 234 250 274 295 312 323 340 346 352 348 351 353 353
85 64 38 106 70 37 151 78 55 59 37 335 334 220 277 236 221 306 339 238 234 234 232 231 228 221 216 213 215 220 225 231 241 260 284 301 318 335 343 348 349 354 356 357
102 153 117 141 81 352 89 95 346 352 9 228 37 284 253 272 257 230 282 296 204 220 223 223 220 216 212 211 212 216 221 227 235 247 269 289 313 330 343 348 350 356 357 359
152 280 172 179 170 169 186 176 164 203 198 261 49 240 246 213 259 256 256 264 256 223 216 218 219 217 213 211 213 215 217 222 229 239 254 275 303 324 343 350 351 356 358 0
150 246 4 37 21 114 185 201 157 98 22 57 240 283 292 293 264 253 247 238 235 215 210 211 213 215 213 211 213 215 215 218 223 230 244 260 285 319 343 350 353 355 359 2
196 96 13 12 67 38 184 156 91 2 195 248 277 280 236 299 322 340 246 238 238 229 215 212 212 214 212 211 212 213 214 219 221 226 236 247 262 308 339 351 354 354 2 4
147 112 337 134 209 178 110 226 19 142 161 182 179 254 207 227 243 254 255 257 232 220 220 216 213 213 213 209 210 211 212 213 216 220 228 235 243 281 334 351 355 354 8 7
183 110 157 194 226 214 192 212 176 147 223 228 145 271 206 237 245 241 267 252 239 221 225 223 218 213 210 208 208 209 210 212 213 216 220 224 229 246 320 352 353 358 13 12
179 217 75 357 2 346 218 195 180 118 98 193 155 252 41 263 262 248 251 248 240 228 218 217 218 216 213 209 208 209 210 210 211 213 215 217 220 223 290 348 350 5 20 19
131 113 175 209 181 126 194 217 201 167 144 194 213 277 294 266 249 268 241 240 238 239 229 224 221 219 215 212 209 209 209 208 210 209 210 212 214 213 232 341 351 14 27 26
109 225 145 255 154 186 240 218 196 209 225 207 203 203 243 259 256 252 261 249 247 249 238 232 230 224 218 214 210 210 210 208 206 206 207 208 206 205 202 222 353 27 37 30
48 223 167 292 327 220 261 226 189 218 243 262 261 257 248 264 274 270 252 255 251 249 247 243 238 232 225 219 213 209 209 207 205 203 204 206 200 197 190 181 36 41 45 34
161 138 132 258 334 333 278 202 193 191 195 190 216 231 244 257 250 256 265 257 261 264 260 252 246 240 231 224 217 212 207 205 203 201 202 203 197 192 185 178 144 66 54 42
152 140 106 262 40 239 245 285 195 210 203 217 253 244 225 242 275 280 270 269 272 266 262 254 249 243 234 226 219 213 208 205 202 201 201 200 195 188 183 174 152 95 68 52
205 169 177 212 193 304 288 176 177 176 249 214 225 246 251 263 299 286 285 289 286 282 278 267 261 247 234 226 219 212 204 203 202 201 200 198 193 187 182 172 158 123 89 63
110 218 196 157 207 231 312 214 159 130 277 216 210 243 246 143 262 276 315 345 320 290 275 253 239 228 225 222 218 210 203 202 202 200 198 195 190 186 181 173 163 145 108 73
160 165 216 214 227 269 215 146 138 155 251 222 216 229 172 186 222 272 295 337 295 323 290 240 231 227 225 221 214 208 203 202 201 198 195 193 188 186 181 177 169 158 123 85
169 169 190 203 216 256 154 144 199 222 243 181 309 271 248 258 264 268 276 278 279 282 266 241 230 224 223 217 211 208 203 201 199 195 193 191 188 186 183 179 175 165 142 100
188 187 176 190 209 218 187 220 220 232 259 279 294 312 293 277 292 277 277 265 280 285 259 238 237 233 225 217 212 209 202 200 195 193 193 191 189 186 184 182 177 174 157 117
275 180 209 104 243 246 236 230 242 253 267 275 270 273 272 288 299 292 290 270 287 270 248 244 237 230 226 214 211 208 205 198 195 193 192 190 189 187 185 180 179 178 163 138
200 155 215 259 268 288 269 259 262 264 268 263 261 270 277 274 274 282 292 293 283 280 255 244 239 232 227 216 211 207 202 197 195 195 193 191 188 189 186 182 182 179 172 158
196 195 196 221 225 228 265 260 274 277 276 278 276 278 279 279 281 280 291 303 297 277 256 244 233 229 224 216 214 207 200 198 198 195 194 192 190 188 186 185 183 179 182 175
Height
1511 1518 1522 1519 1522 1522 1528 1529 1529 1534 1532 1532 1527 1522 1510 1515 1516 1513 1510 1510 1512 1514 1522 1528 1529 1532 1534 1536 1538 1541 1543 1543 1543 1542 1541 1540 1538 1535 1531 1527 1523 1519 1514 1508
1518 1518 1514 1517 1523 1524 1526 1529 1532 1534 1533 1534 1526 1518 1505 1506 1500 1498 1497 1500 1502 1510 1514 1517 1521 1523 1528 1533 1536 1539 1540 1542 1542 1541 1541 1539 1536 1533 1530 1527 1524 1517 1511 1507
1513 1514 1516 1515 1522 1525 1528 1527 1532 1530 1534 1533 1530 1512 1500 1488 1488 1487 1488 1488 1493 1494 1501 1508 1513 1517 1523 1528 1532 1535 1537 1538 1539 1539 1538 1536 1534 1532 1531 1527 1522 1516 1512 1507
1511 1515 1515 1518 1520 1522 1526 1528 1531 1534 1532 1536 1534 1518 1496 1485 1484 1481 1477 1477 1479 1483 1491 1498 1503 1509 1517 1523 1527 1530 1533 1535 1536 1536 1536 1535 1533 1531 1528 1524 1520 1516 1511 1505
1511 1516 1516 1516 1517 1520 1523 1529 1532 1536 1539 1539 1534 1539 1497 1489 1480 1470 1468 1470 1474 1476 1483 1488 1494 1503 1513 1520 1524 1526 1529 1531 1533 1534 1535 1535 1533 1530 1527 1523 1520 1516 1511 1506
1514 1515 1516 1518 1523 1522 1528 1532 1537 1543 1546 1560 1537 1534 1500 1486 1476 1469 1467 1465 1468 1473 1479 1486 1494 1500 1506 1512 1518 1523 1526 1528 1530 1531 1532 1531 1531 1529 1526 1523 1519 1515 1511 1506
1512 1514 1516 1516 1524 1528 1527 1531 1561 1557 1576 1545 1547 1544 1501 1478 1471 1471 1468 1468 1468 1470 1474 1479 1485 1492 1500 1505 1510 1516 1521 1524 1526 1527 1528 1528 1528 1527 1524 1521 1517 1513 1509 1505
1509 1520 1516 1513 1513 1518 1527 1526 1539 1545 1554 1539 1544 1533 1479 1470 1466 1463 1463 1464 1465 1465 1468 1473 1478 1485 1493 1499 1505 1509 1515 1519 1522 1524 1524 1524 1525 1524 1522 1519 1516 1511 1507 1502
1503 1504 1515 1515 1515 1514 1525 1531 1528 1566 1597 1559 1521 1499 1476 1461 1461 1461 1461 1463 1464 1464 1465 1467 1472 1479 1486 1493 1500 1506 1510 1514 1518 1520 1521 1522 1522 1521 1519 1517 1514 1511 1506 1502
1484 1507 1517 1516 1515 1517 1517 1520 1532 1551 1545 1554 1530 1518 1482 1463 1457 1457 1458 1458 1460 1463 1464 1466 1469 1474 1480 1489 1495 1501 1506 1510 1514 1516 1518 1519 1519 1519 1517 1515 1512 1510 1505 1501
1480 1487 1522 1517 1515 1514 1524 1526 1528 1523 1528 1529 1537 1499 1467 1462 1459 1458 1454 1454 1455 1457 1459 1461 1464 1470 1476 1483 1488 1494 1500 1504 1509 1512 1514 1516 1516 1515 1515 1513 1511 1509 1504 1501
1476 1496 1519 1511 1509 1510 1508 1508 1509 1518 1517 1538 1531 1499 1456 1456 1455 1454 1452 1452 1452 1453 1457 1460 1463 1466 1470 1476 1482 1487 1493 1499 1504 1508 1510 1512 1513 1512 1511 1510 1509 1507 1503 1500
1473 1489 1521 1512 1511 1511 1507 1499 1500 1516 1519 1527 1518 1489 1453 1453 1450 1449 1449 1450 1451 1452 1452 1455 1458 1461 1465 1470 1476 1481 1487 1493 1498 1503 1506 1508 1509 1509 1509 1508 1507 1505 1501 1499
1467 1481 1482 1470 1467 1486 1497 1489 1485 1493 1515 1503 1493 1485 1455 1447 1449 1446 1445 1446 1448 1449 1450 1451 1452 1454 1458 1463 1468 1474 1480 1486 1491 1497 1501 1504 1506 1507 1507 1507 1506 1503 1500 1498
1473 1477 1487 1486 1477 1480 1478 1476 1479 1482 1467 1472 1469 1475 1457 1443 1441 1438 1441 1443 1443 1443 1444 1445 1446 1448 1451 1455 1461 1467 1474 1479 1485 1491 1495 1499 1501 1504 1504 1505 1506 1503 1500 1497
1477 1480 1485 1479 1481 1479 1480 1470 1476 1473 1474 1476 1467 1464 1450 1437 1438 1432 1429 1433 1433 1433 1435 1437 1438 1440 1442 1444 1450 1458 1466 1473 1480 1485 1491 1495 1497 1500 1502 1503 1504 1502 1499 1496
1474 1477 1481 1476 1480 1481 1458 1454 1460 1463 1463 1455 1466 1443 1436 1431 1421 1419 1422 1426 1425 1426 1427 1426 1426 1428 1432 1435 1441 1449 1459 1469 1475 1481 1486 1491 1494 1497 1500 1501 1501 1501 1499 1496
1468 1474 1475 1474 1474 1462 1423 1432 1432 1434 1437 1438 1432 1431 1417 1413 1416 1417 1416 1414 1415 1413 1413 1415 1418 1420 1425 1430 1436 1445 1455 1464 1471 1476 1481 1487 1491 1493 1496 1498 1499 1499 1498 1495
1451 1461 1471 1465 1468 1444 1416 1431 1433 1433 1414 1421 1424 1411 1410 1417 1417 1406 1407 1404 1401 1402 1405 1408 1410 1413 1417 1422 1429 1437 1448 1457 1464 1470 1476 1482 1487 1491 1493 1495 1496 1497 1496 1494
1449 1452 1452 1466 1451 1451 1400 1398 1406 1415 1406 1405 1406 1403 1408 1413 1423 1403 1401 1399 1399 1399 1401 1403 1404 1406 1410 1414 1422 1431 1439 1449 1457 1464 1472 1479 1484 1488 1490 1492 1494 1494 1494 1494
1447 1455 1437 1436 1441 1429 1401 1402 1408 1421 1405 1389 1393 1394 1401 1408 1401 1400 1398 1398 1400 1399 1399 1402 1402 1403 1405 1410 1417 1424 1433 1442 1453 1461 1468 1475 1480 1485 1488 1490 1491 1492 1493 1493
1417 1435 1436 1441 1435 1420 1390 1401 1396 1384 1383 1387 1390 1395 1396 1394 1395 1396 1399 1398 1398 1398 1399 1400 1401 1401 1401 1406 1411 1418 1428 1438 1448 1456 1463 1470 1475 1480 1485 1486 1489 1491 1491 1491
1403 1393 1401 1405 1395 1380 1380 1382 1380 1380 1382 1386 1387 1391 1393 1394 1393 1395 1397 1396 1396 1396 1398 1398 1398 1400 1401 1403 1407 1413 1422 1432 1442 1450 1458 1466 1473 1478 1482 1484 1486 1488 1488 1489
1390 1385 1389 1391 1373 1374 1376 1377 1378 1381 1380 1383 1386 1388 1388 1390 1390 1391 1392 1392 1394 1394 1391 1392 1394 1396 1397 1400 1404 1412 1420 1430 1438 1446 1454 1461 1468 1474 1479 1482 1485 1487 1487 1487
1376 1381 1379 1382 1368 1372 1374 1372 1374 1376 1377 1378 1381 1383 1384 1383 1384 1386 1386 1386 1388 1388 1389 1388 1389 1391 1393 1396 1400 1404 1415 1427 1434 1443 1450 1457 1462 1470 1475 1480 1483 1485 1486 1487
1367 1368 1372 1363 1363 1361 1364 1366 1370 1371 1373 1375 1375 1376 1378 1378 1379 1380 1381 1381 1382 1382 1383 1385 1385 1386 1389 1392 1395 1402 1411 1420 1428 1435 1443 1452 1457 1464 1471 1475 1478 1480 1482 1484